Location: An Tulaigh
(53.1928°N, 8.1647°W)
Time: 02:46:33
(UTC+00:00)

ERS-1 Rocket - Pass Details

Date: 15 May 2026
Orbit: 746 x 752 km, 98.2° (Epoch: 8 June)

Event Time Altitude Azimuth Distance (km) Brightness Sun altitude
Rises 21:05:40 0° 181° (S) 3,191 5.8 -5.5°
Reaches altitude 10° 21:08:02 10° 187° (S) 2,271 5.1 -5.8°
Maximum altitude 21:12:52 47° 261° (W) 990 3.9 -6.3°
Drops below altitude 10° 21:17:43 10° 336° (NNW) 2,286 6.8 -6.8°
Sets 21:20:07 0° 342° (NNW) 3,215 7.5 -7.1°
